TimeCDT,TemperatureF,Dew PointF,Humidity,Sea Level PressureIn,VisibilityMPH,Wind Direction,Wind SpeedMPH,Gust SpeedMPH,PrecipitationIn,Events,Conditions,WindDirDegrees,DateUTC
12:15 AM,73.4,64.4,73,30.10,10.0,SSE,8.1,-,N/A,,Clear,150,2012-10-13 05:15:00
12:35 AM,73.4,64.4,73,30.10,10.0,SSE,10.4,-,N/A,,Clear,150,2012-10-13 05:35:00
12:55 AM,73.4,64.4,73,30.09,10.0,SSE,9.2,16.1,N/A,,Clear,160,2012-10-13 05:55:00
1:15 AM,73.4,64.4,73,30.09,10.0,SSE,8.1,16.1,N/A,,Clear,160,2012-10-13 06:15:00
1:35 AM,73.4,64.4,73,30.08,10.0,SSE,13.8,-,N/A,,Clear,160,2012-10-13 06:35:00
1:55 AM,71.6,64.4,78,30.08,10.0,SSE,10.4,19.6,N/A,,Clear,160,2012-10-13 06:55:00
2:15 AM,71.6,64.4,78,30.07,10.0,SSE,9.2,16.1,N/A,,Clear,160,2012-10-13 07:15:00
2:35 AM,71.6,64.4,78,30.07,10.0,South,9.2,18.4,N/A,,Clear,180,2012-10-13 07:35:00
3:35 AM,71.6,64.4,78,30.06,10.0,South,8.1,-,N/A,,Clear,180,2012-10-13 08:35:00
4:15 AM,71.6,64.4,78,30.05,10.0,South,10.4,-,N/A,,Clear,190,2012-10-13 09:15:00
4:35 AM,71.6,64.4,78,30.05,10.0,South,12.7,18.4,N/A,,Clear,190,2012-10-13 09:35:00
4:55 AM,71.6,64.4,78,30.05,10.0,South,9.2,17.3,N/A,,Clear,180,2012-10-13 09:55:00
5:15 AM,71.6,64.4,78,30.05,10.0,South,11.5,17.3,N/A,,Scattered Clouds,180,2012-10-13 10:15:00
5:35 AM,71.6,66.2,83,30.05,10.0,South,13.8,19.6,N/A,,Mostly Cloudy,190,2012-10-13 10:35:00
5:55 AM,71.6,64.4,78,30.05,10.0,South,13.8,21.9,N/A,,Overcast,180,2012-10-13 10:55:00
6:15 AM,71.6,64.4,78,30.05,10.0,South,13.8,21.9,N/A,,Overcast,180,2012-10-13 11:15:00
6:35 AM,71.6,66.2,83,30.05,10.0,South,10.4,17.3,N/A,,Scattered Clouds,180,2012-10-13 11:35:00
7:50 AM,71.6,66.2,83,30.05,10.0,SSE,11.5,16.1,N/A,,Mostly Cloudy,160,2012-10-13 12:50:00
11:50 AM,78.8,68.0,69,30.02,10.0,South,16.1,23.0,N/A,,Overcast,170,2012-10-13 16:50:00
12:50 PM,80.6,68.0,65,30.00,10.0,South,13.8,25.3,N/A,,Scattered Clouds,170,2012-10-13 17:50:00
1:50 PM,82.4,66.2,58,29.96,10.0,South,13.8,27.6,N/A,,Overcast,170,2012-10-13 18:50:00
2:50 PM,80.6,68.0,65,29.93,10.0,South,16.1,24.2,N/A,,Overcast,170,2012-10-13 19:50:00
3:50 PM,80.6,68.0,65,29.91,10.0,SSE,11.5,23.0,N/A,,Overcast,160,2012-10-13 20:50:00
4:50 PM,78.8,69.8,74,29.89,10.0,South,19.6,24.2,N/A,,Mostly Cloudy,170,2012-10-13 21:50:00
6:50 PM,78.8,69.8,74,29.88,10.0,SSE,15.0,24.2,N/A,,Overcast,160,2012-10-13 23:50:00
7:50 PM,78.8,69.8,74,29.88,10.0,SSE,16.1,20.7,N/A,,Mostly Cloudy,160,2012-10-14 00:50:00
9:15 PM,77.0,69.8,78,29.87,10.0,South,19.6,28.8,N/A,,Scattered Clouds,180,2012-10-14 02:15:00
9:35 PM,77.0,69.8,78,29.86,10.0,South,17.3,28.8,N/A,,Scattered Clouds,190,2012-10-14 02:35:00
9:55 PM,77.0,69.8,78,29.88,10.0,South,18.4,27.6,N/A,,Scattered Clouds,190,2012-10-14 02:55:00
10:15 PM,75.2,69.8,83,29.88,10.0,SSW,19.6,27.6,N/A,,Mostly Cloudy,200,2012-10-14 03:15:00
10:35 PM,75.2,69.8,83,29.88,10.0,South,18.4,27.6,N/A,,Mostly Cloudy,190,2012-10-14 03:35:00
10:55 PM,75.2,69.8,83,29.87,10.0,SSW,20.7,28.8,N/A,,Scattered Clouds,200,2012-10-14 03:55:00
11:15 PM,75.2,69.8,83,29.87,10.0,South,19.6,26.5,N/A,,Clear,190,2012-10-14 04:15:00
11:35 PM,75.2,69.8,83,29.88,10.0,South,18.4,27.6,N/A,,Clear,190,2012-10-14 04:35:00